ICE432 BIKF-EGPF

Flight info

Callsign ICE432
Flight time 1h 49m
Altitude 37000
Route BIKF/19 PIXU2C PIXUM DCT PETUX DCT PODAR DCT ADODO DCT AMTAP DCT BRUCE BRUC1G EGPF/05
Aircraft B752/M-SDE2E3FGHIJ3J4J7RWXY/LB1

Departure

Time 2026-04-27 16:39
Airport Keflavik International Airport (BIKF)

Arrival

Time 2026-04-27 18:28
Airport Glasgow Airport (EGPF)
Time Latitude Longitude Altitude Speed Heading
2026-04-27 16:13 63.99280 -22.62314 144 ft 0 kts 360°
2026-04-27 16:28 63.99267 -22.62314 144 ft 2 kts 359°
2026-04-27 16:28 63.99236 -22.62314 144 ft 2 kts 360°
2026-04-27 16:29 63.99192 -22.62318 144 ft 2 kts 24°
2026-04-27 16:30 63.99173 -22.62367 143 ft 2 kts 74°
2026-04-27 16:30 63.99173 -22.62404 142 ft 1 kts 91°
2026-04-27 16:31 63.99175 -22.62457 141 ft 1 kts 91°
2026-04-27 16:31 63.99176 -22.62483 141 ft 0 kts 91°
2026-04-27 16:33 63.99176 -22.62482 141 ft 0 kts 91°
2026-04-27 16:33 63.99175 -22.62421 142 ft 8 kts 93°
2026-04-27 16:34 63.99172 -22.62301 144 ft 6 kts 90°
2026-04-27 16:34 63.99172 -22.62214 144 ft 5 kts 91°
2026-04-27 16:34 63.99172 -22.62132 144 ft 7 kts 90°
2026-04-27 16:34 63.99172 -22.61906 144 ft 17 kts 91°
2026-04-27 16:35 63.99172 -22.61652 144 ft 15 kts 90°
2026-04-27 16:35 63.99172 -22.61427 144 ft 13 kts 90°
2026-04-27 16:35 63.99172 -22.61145 147 ft 11 kts 90°
2026-04-27 16:36 63.99172 -22.60888 147 ft 14 kts 90°
2026-04-27 16:36 63.99173 -22.60795 147 ft 0 kts 89°
2026-04-27 16:36 63.99173 -22.60792 147 ft 1 kts 89°
2026-04-27 16:36 63.99173 -22.60679 147 ft 10 kts 90°
2026-04-27 16:37 63.99161 -22.60571 147 ft 5 kts 131°
2026-04-27 16:37 63.99126 -22.60549 148 ft 0 kts 178°
2026-04-27 16:39 63.99108 -22.60550 148 ft 9 kts 180°
2026-04-27 16:39 63.98835 -22.60549 153 ft 76 kts 179°
2026-04-27 16:39 63.98086 -22.60580 354 ft 128 kts 178°
2026-04-27 16:39 63.97192 -22.60606 1209 ft 135 kts 177°
2026-04-27 16:40 63.96310 -22.60506 2279 ft 130 kts 163°
2026-04-27 16:40 63.95584 -22.59304 3020 ft 146 kts 145°
2026-04-27 16:40 63.94804 -22.57581 3695 ft 160 kts 146°
2026-04-27 16:40 63.93977 -22.55731 4284 ft 178 kts 145°
2026-04-27 16:41 63.93050 -22.53611 4859 ft 200 kts 142°
2026-04-27 16:41 63.92056 -22.51274 5509 ft 219 kts 143°
2026-04-27 16:41 63.90978 -22.48715 6158 ft 238 kts 142°
2026-04-27 16:41 63.89805 -22.45911 6883 ft 253 kts 141°
2026-04-27 16:42 63.88645 -22.43109 7943 ft 253 kts 142°
2026-04-27 16:42 63.87470 -22.40291 8862 ft 258 kts 142°
2026-04-27 16:42 63.86226 -22.37312 9784 ft 262 kts 142°
2026-04-27 16:42 63.84985 -22.34339 10679 ft 267 kts 144°
2026-04-27 16:43 63.83720 -22.31316 11592 ft 269 kts 144°
2026-04-27 16:43 63.82428 -22.28237 12379 ft 277 kts 144°
2026-04-27 16:43 63.81125 -22.25131 13277 ft 280 kts 145°
2026-04-27 16:43 63.79824 -22.22041 13969 ft 288 kts 145°
2026-04-27 16:44 63.78534 -22.18973 14709 ft 294 kts 145°
2026-04-27 16:44 63.77162 -22.15754 14955 ft 316 kts 144°
2026-04-27 16:44 63.75678 -22.12244 15361 ft 333 kts 144°
2026-04-27 16:44 63.74045 -22.08391 15606 ft 354 kts 143°
2026-04-27 16:45 63.72353 -22.04252 15877 ft 378 kts 138°
2026-04-27 16:45 63.70835 -21.99299 16608 ft 387 kts 134°
2026-04-27 16:45 63.69315 -21.94344 17207 ft 394 kts 134°
2026-04-27 16:45 63.67754 -21.89234 18043 ft 395 kts 134°
2026-04-27 16:46 63.66211 -21.84211 18611 ft 402 kts 134°
2026-04-27 16:46 63.64632 -21.79065 19325 ft 405 kts 135°
2026-04-27 16:46 63.63023 -21.73850 19868 ft 411 kts 134°
2026-04-27 16:46 63.61402 -21.68593 20619 ft 412 kts 135°
2026-04-27 16:47 63.59844 -21.63567 20964 ft 422 kts 134°
2026-04-27 16:47 63.58156 -21.58101 21766 ft 422 kts 134°
2026-04-27 16:47 63.56466 -21.52672 22193 ft 429 kts 135°
2026-04-27 16:47 63.54768 -21.47211 22957 ft 428 kts 135°
2026-04-27 16:48 63.53058 -21.41751 23212 ft 439 kts 134°
2026-04-27 16:48 63.51319 -21.36178 24013 ft 436 kts 134°
2026-04-27 16:48 63.49564 -21.30592 24445 ft 442 kts 135°
2026-04-27 16:49 63.46045 -21.19430 25465 ft 448 kts 135°
2026-04-27 16:49 63.44217 -21.13658 25817 ft 455 kts 135°
2026-04-27 16:49 63.42392 -21.07904 26347 ft 457 kts 135°
2026-04-27 16:49 63.40574 -21.02182 26940 ft 457 kts 135°
2026-04-27 16:50 63.38723 -20.96384 27169 ft 465 kts 134°
2026-04-27 16:50 63.36839 -20.90488 27727 ft 465 kts 134°
2026-04-27 16:50 63.34941 -20.84688 28041 ft 469 kts 136°
2026-04-27 16:50 63.32952 -20.78924 28559 ft 469 kts 136°
2026-04-27 16:51 63.30982 -20.73195 29154 ft 467 kts 136°
2026-04-27 16:51 63.29048 -20.67579 29776 ft 465 kts 136°
2026-04-27 16:51 63.27082 -20.61900 30229 ft 466 kts 136°
2026-04-27 16:51 63.25129 -20.56262 30704 ft 466 kts 136°
2026-04-27 16:52 63.23145 -20.50544 31274 ft 464 kts 136°
2026-04-27 16:52 63.21186 -20.44916 31769 ft 463 kts 136°
2026-04-27 16:52 63.19249 -20.39366 32224 ft 462 kts 137°
2026-04-27 16:52 63.17318 -20.33850 32701 ft 461 kts 137°
2026-04-27 16:53 63.15348 -20.28233 33277 ft 457 kts 137°
2026-04-27 16:53 63.13412 -20.22731 33571 ft 459 kts 138°
2026-04-27 16:53 63.11443 -20.17147 33964 ft 459 kts 137°
2026-04-27 16:53 63.09513 -20.11684 34405 ft 457 kts 138°
2026-04-27 16:54 63.07561 -20.06174 34867 ft 453 kts 137°
2026-04-27 16:54 63.05621 -20.00712 35136 ft 454 kts 138°
2026-04-27 16:54 63.03717 -19.95366 35481 ft 453 kts 137°
2026-04-27 16:54 63.01753 -19.89867 35683 ft 455 kts 137°
2026-04-27 16:55 62.99825 -19.84472 36026 ft 454 kts 137°
2026-04-27 16:55 62.97860 -19.78999 36187 ft 456 kts 137°
2026-04-27 16:55 62.95934 -19.73633 36534 ft 454 kts 137°
2026-04-27 16:55 62.93959 -19.68155 36829 ft 454 kts 137°
2026-04-27 16:56 62.92017 -19.62773 36956 ft 452 kts 137°
2026-04-27 16:56 62.90080 -19.57422 36940 ft 451 kts 137°
2026-04-27 16:56 62.86185 -19.46706 36958 ft 453 kts 137°
2026-04-27 16:57 62.82245 -19.35911 36966 ft 455 kts 136°
2026-04-27 16:57 62.78290 -19.25124 36975 ft 453 kts 137°
2026-04-27 16:58 62.74350 -19.14433 36971 ft 455 kts 136°
2026-04-27 16:58 62.70901 -19.02682 36972 ft 466 kts 128°
2026-04-27 16:59 62.67575 -18.90510 36992 ft 467 kts 128°
2026-04-27 16:59 62.64266 -18.78442 37322 ft 465 kts 128°
2026-04-27 17:00 62.62033 -18.70344 36963 ft 467 kts 128°
2026-04-27 17:00 62.59293 -18.60421 36999 ft 461 kts 128°
2026-04-27 17:01 62.55947 -18.48392 37006 ft 468 kts 128°
2026-04-27 17:01 62.52594 -18.36379 37012 ft 466 kts 128°
2026-04-27 17:02 62.49241 -18.24434 37008 ft 465 kts 129°
2026-04-27 17:02 62.45861 -18.12462 37015 ft 464 kts 128°
2026-04-27 17:03 62.42490 -18.00582 37024 ft 465 kts 128°
2026-04-27 17:03 62.39122 -17.88773 37021 ft 466 kts 128°
2026-04-27 17:04 62.35692 -17.76814 37036 ft 467 kts 128°
2026-04-27 17:04 62.32287 -17.65000 37036 ft 467 kts 128°
2026-04-27 17:05 62.28869 -17.53203 37045 ft 468 kts 128°
2026-04-27 17:05 62.25400 -17.41294 37054 ft 466 kts 128°
2026-04-27 17:06 62.21933 -17.29453 37049 ft 466 kts 128°
2026-04-27 17:06 62.18480 -17.17721 37060 ft 466 kts 128°
2026-04-27 17:07 62.15006 -17.05980 37067 ft 467 kts 128°
2026-04-27 17:07 62.11512 -16.94230 37071 ft 465 kts 128°
2026-04-27 17:08 62.08011 -16.82516 37068 ft 467 kts 128°
2026-04-27 17:08 62.04483 -16.70772 37079 ft 466 kts 128°
2026-04-27 17:09 62.00953 -16.59085 37088 ft 467 kts 128°
2026-04-27 17:09 61.97408 -16.47408 37090 ft 469 kts 127°
2026-04-27 17:10 61.93911 -16.35944 37095 ft 468 kts 127°
2026-04-27 17:10 61.90393 -16.24469 37094 ft 467 kts 128°
2026-04-27 17:11 61.86861 -16.13009 37121 ft 468 kts 128°
2026-04-27 17:11 61.81598 -15.96034 37115 ft 468 kts 128°
2026-04-27 17:12 61.76244 -15.78899 37134 ft 469 kts 127°
2026-04-27 17:13 61.72689 -15.67585 37140 ft 469 kts 127°
2026-04-27 17:13 61.69095 -15.56207 37139 ft 469 kts 127°
2026-04-27 17:14 61.65500 -15.44885 37147 ft 470 kts 127°
2026-04-27 17:14 61.61859 -15.33470 37146 ft 470 kts 128°
2026-04-27 17:15 61.58237 -15.22173 37158 ft 471 kts 128°
2026-04-27 17:15 61.54592 -15.10860 37150 ft 471 kts 127°
2026-04-27 17:16 61.50856 -14.99648 37155 ft 468 kts 133°
2026-04-27 17:16 61.46267 -14.90094 37161 ft 467 kts 140°
2026-04-27 17:17 61.41467 -14.80896 37171 ft 466 kts 141°
2026-04-27 17:17 61.36723 -14.72006 37172 ft 466 kts 141°
2026-04-27 17:18 61.29507 -14.58656 37179 ft 468 kts 141°
2026-04-27 17:18 61.24661 -14.49755 37188 ft 468 kts 141°
2026-04-27 17:19 61.19845 -14.40953 37193 ft 470 kts 141°
2026-04-27 17:19 61.14977 -14.32093 37191 ft 469 kts 142°
2026-04-27 17:20 61.10091 -14.23240 37196 ft 469 kts 142°
2026-04-27 17:20 61.05191 -14.14400 37205 ft 470 kts 142°
2026-04-27 17:21 61.00297 -14.05609 37210 ft 472 kts 142°
2026-04-27 17:21 60.95345 -13.96750 37222 ft 472 kts 141°
2026-04-27 17:22 60.90456 -13.88042 37220 ft 471 kts 141°
2026-04-27 17:22 60.85508 -13.79264 37224 ft 472 kts 141°
2026-04-27 17:23 60.80555 -13.70516 37232 ft 471 kts 141°
2026-04-27 17:23 60.75587 -13.61780 37239 ft 473 kts 141°
2026-04-27 17:24 60.70631 -13.53100 37244 ft 472 kts 141°
2026-04-27 17:24 60.65687 -13.44479 37248 ft 472 kts 141°
2026-04-27 17:25 60.60674 -13.35775 37254 ft 474 kts 141°
2026-04-27 17:25 60.55680 -13.27137 37254 ft 473 kts 141°
2026-04-27 17:26 60.50678 -13.18525 37261 ft 473 kts 141°
2026-04-27 17:26 60.45689 -13.09968 37261 ft 473 kts 141°
2026-04-27 17:27 60.40670 -13.01397 37270 ft 473 kts 141°
2026-04-27 17:27 60.35701 -12.92947 37272 ft 474 kts 141°
2026-04-27 17:28 60.30702 -12.84481 37285 ft 474 kts 141°
2026-04-27 17:29 60.23167 -12.71786 37295 ft 474 kts 141°
2026-04-27 17:29 60.18150 -12.63376 37296 ft 475 kts 141°
2026-04-27 17:30 60.13131 -12.54998 37306 ft 474 kts 141°
2026-04-27 17:30 60.05775 -12.42781 37309 ft 475 kts 140°
2026-04-27 17:31 60.00786 -12.34537 37315 ft 474 kts 141°
2026-04-27 17:31 59.95762 -12.26268 37317 ft 473 kts 141°
2026-04-27 17:32 59.88223 -12.13924 37315 ft 474 kts 141°
2026-04-27 17:33 59.83106 -12.05586 37316 ft 475 kts 141°
2026-04-27 17:33 59.78051 -11.97385 37328 ft 475 kts 141°
2026-04-27 17:34 59.72912 -11.89079 37322 ft 475 kts 141°
2026-04-27 17:34 59.67827 -11.80894 37329 ft 476 kts 141°
2026-04-27 17:35 59.62692 -11.72664 37335 ft 477 kts 141°
2026-04-27 17:35 59.57563 -11.64475 37333 ft 477 kts 141°
2026-04-27 17:36 59.52431 -11.56315 37342 ft 477 kts 141°
2026-04-27 17:36 59.47273 -11.48149 37346 ft 478 kts 141°
2026-04-27 17:37 59.42092 -11.39978 37348 ft 477 kts 141°
2026-04-27 17:37 59.36939 -11.31880 37349 ft 478 kts 141°
2026-04-27 17:38 59.31760 -11.23780 37351 ft 478 kts 141°
2026-04-27 17:38 59.26591 -11.15725 37355 ft 478 kts 141°
2026-04-27 17:39 59.21408 -11.07679 37365 ft 479 kts 141°
2026-04-27 17:39 59.16199 -10.99628 37370 ft 479 kts 141°
2026-04-27 17:40 59.11040 -10.91683 37380 ft 479 kts 141°
2026-04-27 17:40 59.06033 -10.84005 37380 ft 479 kts 141°
2026-04-27 17:41 59.00800 -10.76010 37387 ft 481 kts 141°
2026-04-27 17:41 58.95639 -10.68157 37388 ft 479 kts 141°
2026-04-27 17:42 58.90544 -10.60432 37397 ft 480 kts 141°
2026-04-27 17:42 58.85287 -10.52494 37390 ft 481 kts 140°
2026-04-27 17:43 58.80063 -10.44637 37388 ft 481 kts 141°
2026-04-27 17:43 58.74765 -10.36701 37385 ft 482 kts 140°
2026-04-27 17:44 58.69505 -10.28852 37383 ft 482 kts 141°
2026-04-27 17:44 58.64225 -10.21004 37380 ft 482 kts 141°
2026-04-27 17:45 58.58908 -10.13133 37375 ft 483 kts 141°
2026-04-27 17:45 58.53587 -10.05277 37377 ft 484 kts 140°
2026-04-27 17:46 58.49108 -9.96117 37292 ft 473 kts 120°
2026-04-27 17:46 58.47507 -9.90723 37396 ft 470 kts 111°
2026-04-27 17:46 58.46180 -9.85146 37418 ft 474 kts 111°
2026-04-27 17:47 58.43444 -9.74053 37403 ft 476 kts 112°
2026-04-27 17:47 58.40614 -9.62798 37404 ft 475 kts 112°
2026-04-27 17:48 58.37532 -9.51713 37411 ft 480 kts 122°
2026-04-27 17:48 58.33097 -9.42289 37407 ft 485 kts 132°
2026-04-27 17:49 58.28262 -9.33192 37408 ft 485 kts 133°
2026-04-27 17:49 58.23441 -9.24256 37411 ft 486 kts 133°
2026-04-27 17:50 58.18585 -9.15323 37412 ft 485 kts 133°
2026-04-27 17:50 58.11360 -9.02114 37409 ft 484 kts 133°
2026-04-27 17:51 58.06518 -8.93306 37411 ft 484 kts 133°
2026-04-27 17:51 58.01686 -8.84554 37420 ft 485 kts 133°
2026-04-27 17:52 57.96809 -8.75755 37415 ft 485 kts 133°
2026-04-27 17:52 57.92740 -8.68441 37415 ft 485 kts 133°
2026-04-27 17:53 57.87080 -8.58309 37415 ft 486 kts 133°
2026-04-27 17:53 57.82158 -8.49533 37412 ft 486 kts 133°
2026-04-27 17:54 57.77318 -8.40937 37420 ft 487 kts 133°
2026-04-27 17:54 57.72551 -8.32506 37421 ft 487 kts 133°
2026-04-27 17:55 57.67755 -8.24054 37426 ft 487 kts 133°
2026-04-27 17:55 57.62807 -8.15365 37428 ft 487 kts 133°
2026-04-27 17:56 57.57899 -8.06785 37429 ft 488 kts 133°
2026-04-27 17:56 57.52991 -7.98236 37423 ft 487 kts 133°
2026-04-27 17:57 57.48078 -7.89710 37413 ft 488 kts 133°
2026-04-27 17:57 57.43148 -7.81191 37411 ft 488 kts 133°
2026-04-27 17:58 57.38266 -7.72782 37410 ft 489 kts 133°
2026-04-27 17:58 57.33346 -7.64343 37407 ft 490 kts 133°
2026-04-27 17:59 57.28342 -7.55796 37406 ft 490 kts 133°
2026-04-27 17:59 57.23431 -7.47434 37412 ft 491 kts 133°
2026-04-27 18:00 57.18455 -7.38999 37412 ft 490 kts 132°
2026-04-27 18:00 57.13588 -7.30776 37414 ft 490 kts 133°
2026-04-27 18:01 57.08586 -7.22354 36720 ft 503 kts 133°
2026-04-27 18:01 57.06088 -7.18161 36085 ft 505 kts 133°
2026-04-27 18:01 57.03540 -7.13896 35410 ft 502 kts 134°
2026-04-27 18:02 57.01041 -7.09720 34739 ft 501 kts 133°
2026-04-27 18:02 56.98545 -7.05559 34011 ft 502 kts 134°
2026-04-27 18:02 56.96203 -7.01658 33328 ft 503 kts 133°
2026-04-27 18:02 56.93578 -6.97293 32576 ft 503 kts 134°
2026-04-27 18:03 56.90969 -6.92966 31839 ft 503 kts 133°
2026-04-27 18:03 56.88376 -6.88673 31102 ft 504 kts 133°
2026-04-27 18:03 56.85793 -6.84405 30378 ft 505 kts 133°
2026-04-27 18:03 56.83149 -6.80046 29651 ft 503 kts 133°
2026-04-27 18:04 56.80606 -6.75863 28951 ft 492 kts 133°
2026-04-27 18:04 56.78069 -6.71697 28277 ft 486 kts 133°
2026-04-27 18:04 56.75542 -6.67553 27621 ft 479 kts 133°
2026-04-27 18:04 56.73059 -6.63489 26976 ft 473 kts 133°
2026-04-27 18:05 56.70615 -6.59496 26343 ft 467 kts 133°
2026-04-27 18:05 56.68201 -6.55560 25722 ft 458 kts 133°
2026-04-27 18:05 56.65806 -6.51665 25109 ft 447 kts 133°
2026-04-27 18:05 56.63488 -6.47892 24540 ft 449 kts 133°
2026-04-27 18:06 56.61124 -6.44050 23978 ft 452 kts 133°
2026-04-27 18:06 56.58727 -6.40170 23396 ft 449 kts 133°
2026-04-27 18:06 56.56385 -6.36387 22834 ft 444 kts 133°
2026-04-27 18:06 56.54114 -6.32722 22291 ft 441 kts 134°
2026-04-27 18:07 56.51878 -6.29117 21753 ft 439 kts 134°
2026-04-27 18:07 56.49573 -6.25411 21195 ft 436 kts 133°
2026-04-27 18:07 56.47305 -6.21767 20647 ft 434 kts 134°
2026-04-27 18:07 56.45039 -6.18136 20098 ft 432 kts 133°
2026-04-27 18:08 56.42777 -6.14518 19543 ft 426 kts 133°
2026-04-27 18:08 56.40542 -6.10949 18994 ft 422 kts 133°
2026-04-27 18:08 56.38318 -6.07401 18447 ft 420 kts 133°
2026-04-27 18:08 56.36139 -6.03927 17916 ft 417 kts 133°
2026-04-27 18:09 56.33965 -6.00472 17379 ft 411 kts 133°
2026-04-27 18:09 56.31823 -5.97072 16843 ft 405 kts 134°
2026-04-27 18:09 56.29689 -5.93688 16302 ft 400 kts 134°
2026-04-27 18:09 56.27618 -5.90410 15774 ft 395 kts 134°
2026-04-27 18:10 56.25544 -5.87131 15249 ft 390 kts 134°
2026-04-27 18:10 56.23708 -5.83618 14751 ft 378 kts 120°
2026-04-27 18:10 56.22496 -5.79677 14298 ft 367 kts 108°
2026-04-27 18:10 56.21456 -5.75539 13877 ft 365 kts 109°
2026-04-27 18:11 56.20387 -5.71361 13403 ft 362 kts 109°
2026-04-27 18:11 56.19329 -5.67227 12939 ft 359 kts 109°
2026-04-27 18:11 56.18285 -5.63158 12484 ft 355 kts 109°
2026-04-27 18:11 56.17254 -5.59141 12063 ft 352 kts 109°
2026-04-27 18:12 56.16208 -5.55076 11628 ft 350 kts 110°
2026-04-27 18:12 56.15182 -5.51094 11193 ft 349 kts 109°
2026-04-27 18:12 56.14182 -5.47218 10762 ft 346 kts 110°
2026-04-27 18:12 56.13193 -5.43410 10234 ft 322 kts 110°
2026-04-27 18:13 56.12306 -5.39997 9813 ft 299 kts 109°
2026-04-27 18:13 56.11476 -5.36804 9470 ft 277 kts 109°
2026-04-27 18:13 56.10681 -5.33728 9254 ft 278 kts 110°
2026-04-27 18:13 56.09951 -5.30906 9014 ft 281 kts 110°
2026-04-27 18:14 56.09090 -5.27601 8725 ft 278 kts 110°
2026-04-27 18:14 56.08283 -5.24506 8454 ft 274 kts 110°
2026-04-27 18:14 56.07509 -5.21541 8202 ft 271 kts 110°
2026-04-27 18:14 56.06723 -5.18534 8062 ft 267 kts 111°
2026-04-27 18:15 56.05944 -5.15554 8013 ft 270 kts 111°
2026-04-27 18:15 56.05139 -5.12631 7972 ft 273 kts 119°
2026-04-27 18:15 56.03919 -5.10375 7947 ft 281 kts 144°
2026-04-27 18:15 56.03913 -5.10369 7947 ft 281 kts 145°
2026-04-27 18:16 56.03014 -5.09567 7947 ft 285 kts 158°
2026-04-27 18:16 56.01172 -5.08662 7921 ft 287 kts 164°
2026-04-27 18:16 55.99233 -5.07831 7875 ft 287 kts 164°
2026-04-27 18:16 55.97309 -5.07008 7845 ft 286 kts 163°
2026-04-27 18:17 55.95365 -5.06175 7798 ft 286 kts 163°
2026-04-27 18:17 55.93454 -5.05359 7755 ft 285 kts 163°
2026-04-27 18:17 55.91530 -5.04546 7708 ft 285 kts 164°
2026-04-27 18:17 55.89610 -5.03742 7645 ft 285 kts 164°
2026-04-27 18:18 55.87868 -5.03016 7419 ft 287 kts 164°
2026-04-27 18:18 55.85883 -5.02193 7144 ft 281 kts 163°
2026-04-27 18:18 55.84006 -5.01415 6755 ft 279 kts 164°
2026-04-27 18:18 55.82113 -5.00624 6364 ft 278 kts 163°
2026-04-27 18:19 55.80241 -4.99833 6051 ft 275 kts 164°
2026-04-27 18:19 55.78402 -4.99056 5720 ft 270 kts 164°
2026-04-27 18:19 55.76662 -4.98074 5485 ft 255 kts 146°
2026-04-27 18:19 55.75403 -4.96071 5294 ft 237 kts 124°
2026-04-27 18:20 55.74433 -4.93769 5047 ft 229 kts 123°
2026-04-27 18:20 55.73499 -4.91537 4814 ft 223 kts 123°
2026-04-27 18:20 55.72585 -4.89363 4641 ft 211 kts 123°
2026-04-27 18:20 55.71708 -4.87286 4527 ft 213 kts 122°
2026-04-27 18:21 55.70810 -4.85155 4424 ft 217 kts 122°
2026-04-27 18:21 55.69907 -4.83003 4297 ft 217 kts 123°
2026-04-27 18:21 55.69006 -4.80849 4170 ft 215 kts 123°
2026-04-27 18:21 55.68237 -4.78603 4037 ft 209 kts 99°
2026-04-27 18:22 55.68413 -4.76179 3983 ft 202 kts 54°
2026-04-27 18:22 55.69472 -4.74509 3928 ft 205 kts 34°
2026-04-27 18:22 55.70605 -4.73018 3807 ft 203 kts 39°
2026-04-27 18:22 55.71672 -4.71415 3705 ft 193 kts 40°
2026-04-27 18:23 55.72639 -4.69873 3579 ft 186 kts 42°
2026-04-27 18:23 55.73564 -4.68329 3434 ft 179 kts 43°
2026-04-27 18:23 55.74452 -4.66800 3281 ft 171 kts 44°
2026-04-27 18:23 55.75290 -4.65323 3105 ft 173 kts 44°
2026-04-27 18:24 55.76111 -4.63853 2924 ft 165 kts 44°
2026-04-27 18:24 55.76890 -4.62441 2709 ft 163 kts 44°
2026-04-27 18:24 55.77694 -4.60973 2487 ft 160 kts 45°
2026-04-27 18:24 55.78468 -4.59550 2282 ft 163 kts 45°
2026-04-27 18:25 55.79256 -4.58098 2077 ft 158 kts 45°
2026-04-27 18:25 55.79981 -4.56751 1859 ft 142 kts 45°
2026-04-27 18:25 55.80626 -4.55549 1656 ft 129 kts 45°
2026-04-27 18:25 55.81238 -4.54407 1505 ft 133 kts 45°
2026-04-27 18:26 55.81890 -4.53193 1338 ft 135 kts 45°
2026-04-27 18:26 55.82513 -4.52033 1143 ft 124 kts 45°
2026-04-27 18:26 55.83100 -4.50954 972 ft 120 kts 45°
2026-04-27 18:26 55.83677 -4.49886 825 ft 124 kts 45°
2026-04-27 18:27 55.84244 -4.48835 683 ft 124 kts 45°
2026-04-27 18:27 55.84782 -4.47797 522 ft 123 kts 46°
2026-04-27 18:27 55.85376 -4.46670 340 ft 123 kts 45°
2026-04-27 18:27 55.85986 -4.45562 197 ft 126 kts 44°
2026-04-27 18:28 55.86582 -4.44461 37 ft 120 kts 45°
2026-04-27 18:28 55.87055 -4.43585 34 ft 72 kts 45°
2026-04-27 18:28 55.87333 -4.43065 34 ft 54 kts 45°
2026-04-27 18:28 55.87557 -4.42647 34 ft 39 kts 46°
2026-04-27 18:29 55.87725 -4.42332 33 ft 15 kts 46°
2026-04-27 18:29 55.87747 -4.42226 32 ft 8 kts 113°
2026-04-27 18:29 55.87701 -4.42160 32 ft 9 kts 156°
2026-04-27 18:29 55.87637 -4.42152 33 ft 9 kts 200°
2026-04-27 18:30 55.87584 -4.42220 33 ft 9 kts 226°
2026-04-27 18:30 55.87534 -4.42313 33 ft 10 kts 226°
2026-04-27 18:30 55.87481 -4.42412 33 ft 11 kts 226°
2026-04-27 18:30 55.87425 -4.42516 34 ft 12 kts 226°
2026-04-27 18:31 55.87360 -4.42605 34 ft 11 kts 200°
2026-04-27 18:31 55.87283 -4.42656 34 ft 12 kts 199°
2026-04-27 18:31 55.87203 -4.42709 34 ft 13 kts 200°
2026-04-27 18:31 55.87114 -4.42771 34 ft 14 kts 200°
2026-04-27 18:32 55.87023 -4.42830 34 ft 14 kts 199°
2026-04-27 18:32 55.86926 -4.42907 35 ft 15 kts 205°
2026-04-27 18:32 55.86858 -4.42981 35 ft 9 kts 231°
2026-04-27 18:32 55.86835 -4.43098 35 ft 10 kts 253°
2026-04-27 18:33 55.86814 -4.43225 35 ft 11 kts 252°
2026-04-27 18:33 55.86790 -4.43365 35 ft 12 kts 253°
2026-04-27 18:33 55.86765 -4.43517 34 ft 12 kts 253°
2026-04-27 18:33 55.86739 -4.43603 34 ft 7 kts 208°
2026-04-27 18:34 55.86688 -4.43598 34 ft 8 kts 164°
2026-04-27 18:34 55.86631 -4.43569 35 ft 8 kts 164°
2026-04-27 18:34 55.86602 -4.43562 35 ft 3 kts 197°
2026-04-27 18:34 55.86585 -4.43612 35 ft 6 kts 251°
2026-04-27 18:35 55.86573 -4.43682 35 ft 5 kts 251°
2026-04-27 18:35 55.86569 -4.43709 35 ft 0 kts 253°
2026-04-27 18:35 55.86568 -4.43715 35 ft 0 kts 253°